Regional Weather Roundup
Issued by NWS

Home | Current Version | Previous Version | Text Only | Print | Product List | Glossary Off
Versions: 1 2 3 4 5 6 7 8 9 10 11 12 13 14 15 16 17 18 19 20 21 22 23 24 25 26 27

000
ASUS45 KCYS 291010
RWRWY

WYOMING REGIONAL WEATHER ROUNDUP
NATIONAL WEATHER SERVICE CHEYENNE WY
400 AM MDT SUN MAY 29 2016

NOTE:  "FAIR" INDICATES FEW OR NO CLOUDS BELOW 12,000 FEET
WITH NO SIGNIFICANT WEATHER AND/OR OBSTRUCTIONS TO VISIBILITY.

WYZ001-291100-
YELLOWSTONE NATIONAL PARK

CITY           SKY/WX    TMP DP  RH WIND       PRES   REMARKS
LK YELLOWSTONE   N/A     27  24  89 NW3       30.25S
W YELLOWSTONE  NOT AVBL

$$
WYZ002>013-054>058-071-098>099-291100-
NORTHERN WYOMING

CITY           SKY/WX    TMP DP  RH WIND       PRES   REMARKS
JACKSON        FAIR      30  28  93 CALM      30.20S
CODY           FAIR      45  37  76 CALM      30.09R
GREYBULL       CLOUDY    53  43  68 N3        30.05S
WORLAND        FAIR      47  43  86 SW3       30.06S
SHERIDAN       FAIR      44  40  85 CALM      30.05F
BUFFALO        MOCLDY    51  42  71 W3        30.08F
GILLETTE       CLOUDY    51  45  79 CALM      30.07S
HULETT         FAIR      46  41  81 SW6       30.11R
NEWCASTLE      FAIR      45  41  87 N8        30.10S

$$
WYZ014>020-022>026-101>103-291100-
CENTRAL WYOMING

CITY           SKY/WX    TMP DP  RH WIND       PRES   REMARKS
BIG PINEY      FAIR      32  28  85 E6        30.21S WCI  26
PINEDALE       FAIR      32  28  86 MISG      30.22S
DUBOIS         FAIR      34  21  60 NW17      30.18F WCI  23
LANDER         FAIR      46  27  47 SW5       30.10S
RIVERTON       FAIR      45  31  58 NW14      30.11R
CASPER         FAIR      41  38  89 W9        30.09S
DOUGLAS          N/A    N/A N/A N/A MISG      30.09R

$$
WYZ021-027>030-104>119-291100-
SOUTHERN WYOMING

CITY           SKY/WX    TMP DP  RH WIND       PRES   REMARKS
EVANSTON       FAIR      42  30  62 SE5       30.20S
KEMMERER         N/A     36  30  80 NW6       30.22R WCI  31
FORT BRIDGER   SUNNY     45  32  61 W5        30.23R
ROCK SPRINGS   FAIR      43  34  70 S7        30.19R
DIXON          FAIR      42  35  77 E3        30.22R
RAWLINS        FAIR      44  34  67 SW8       30.18R
SARATOGA       FAIR      41  34  75 SE9       30.20S
LARAMIE        FAIR      38  33  82 S7        30.20S WCI  33
CHEYENNE       FAIR      43  36  76 SW6       30.16S
TORRINGTON     FAIR      44  42  93 NW5       30.08R
PINE BLUFFS    FAIR      41  39  93 SW5       30.13F

$$




USA.gov is the U.S. government's official web portal to all federal, state and local government web resources and services.